Regional Weather Roundup
Issued by NWS

Home | Current Version | Previous Version | Graphics & Text | Print | Product List | Glossary On
Versions: 1 2 3 4 5 6 7 8 9 10 11 12 13 14 15 16 17 18 19 20 21 22 23 24 25 26 27 28 29 30 31 32 33 34 35 36 37 38 39 40 41 42 43 44 45 46 47 48 49 50
000
ASUS43 KFSD 190302
RWRSD

WEATHER ROUNDUP FOR SOUTH DAKOTA
NATIONAL WEATHER SERVICE SIOUX FALLS SD
1000 PM CDT WED APR 18 2018

NOTE: "FAIR" INDICATES FEW OR NO CLOUDS BELOW 12,000 FEET WITH NO
SIGNIFICANT WEATHER AND/OR OBSTRUCTIONS TO VISIBILITY.


SDZ001>005-009-010-012>017-190400-
NORTHWEST AND NORTH CENTRAL SOUTH DAKOTA

CITY           SKY/WX    TMP DP  RH WIND       PRES   REMARKS
BUFFALO          N/A     45  31  58 NE7       30.19R
FAITH            N/A     41  35  79 E7        30.26R
MOBRIDGE       CLEAR     38  27  64 NE12      30.25R
$$

SDZ012>016-024>037-041>051-057-063-072>074-190400-
SOUTHWEST AND SOUTH CENTRAL SOUTH DAKOTA

CITY           SKY/WX    TMP DP  RH WIND       PRES   REMARKS
RAPID CTY ARPT CLOUDY    42  34  73 E10       30.25R
PIERRE         CLEAR     38  34  85 N6        30.27R
CUSTER         CLEAR     36  17  46 N5        30.25R
ELLSWORTH AFB  PTCLDY    44  35  72 E8        30.25R
PHILIP         CLEAR     37  34  89 E7        30.27R
PINE RIDGE     MOCLDY    43  36  76 E8        30.26R
SPEARFISH      FAIR      37  27  65 S9        30.26R
WINNER         FAIR      37  32  82 NW3       30.27R
$$

SDZ004>011-016>023-039-040-190400-
NORTHEAST SOUTH DAKOTA

CITY           SKY/WX    TMP DP  RH WIND       PRES   REMARKS
ABERDEEN       PTCLDY    37  31  78 N8        30.26R
WATERTOWN      CLOUDY    35  30  82 W8        30.22R WCI  29
BROOKINGS      CLOUDY    33  27  78 NW7       30.22R WCI  27
SISSETON         N/A     37  30  75 SW6       30.23R
$$

SDZ017-020-022-023-036>040-048>070-190400-
SOUTHEAST SOUTH DAKOTA

CITY           SKY/WX    TMP DP  RH WIND       PRES   REMARKS
SIOUX FALLS    CLOUDY    32  30  92 NW7       30.21R WCI  26
HURON          MOCLDY    39  30  70 N9        30.25R
CHAMBERLAIN    CLEAR     40  32  71 N9        30.26R
MITCHELL       CLOUDY    37  32  82 CALM      30.26R
YANKTON        CLOUDY    35  33  92 NW5       30.25R
$$

ABBREVIATIONS USED IN REMARKS
   TC - TEMPERATURE IN CELSIUS
  WCI - WIND CHILL INDEX
   HX - HEAT INDEX
  VSB - VISIBILITY





USA.gov is the U.S. government's official web portal to all federal, state and local government web resources and services.